• En España
  • Lista de países
  • Para 7 días
  • Temperatura del agua
  • Mapa Satelital
  • El tiempo en el mapa
  • Informadores
  • user-avatar
    Iniciar sesión

    Tiempo cada hora Smolan

    Hoy, 19 Septiembre, Miércoles

    Tiempo Temperatura Precipitaciones Viento Presión Humedad
    00:00 +9°C° 0 mm 2 mps 660 mmHg 75%
    01:00 +9°C° 0 mm 2 mps 660 mmHg 77%
    02:00 +9°C° 0 mm 2 mps 660 mmHg 78%
    03:00 +8°C° 0 mm 2 mps 660 mmHg 78%
    04:00 +8°C° 0 mm 2 mps 659 mmHg 79%
    05:00 +8°C° 0 mm 2 mps 659 mmHg 79%
    06:00 +9°C° 0 mm 2 mps 660 mmHg 73%
    07:00 +12°C° 0 mm 1 mps 660 mmHg 67%
    08:00 +13°C° 0 mm 1 mps 661 mmHg 61%
    09:00 +15°C° 0 mm 2 mps 661 mmHg 54%
    10:00 +17°C° 0 mm 2 mps 662 mmHg 48%
    11:00 +19°C° 0 mm 2 mps 662 mmHg 42%
    12:00 +20°C° 0 mm 2 mps 662 mmHg 39%
    13:00 +21°C° 0 mm 2 mps 662 mmHg 37%
    14:00 +21°C° 0 mm 3 mps 662 mmHg 34%
    15:00 +21°C° 0 mm 3 mps 662 mmHg 36%
    16:00 +20°C° 0 mm 2 mps 661 mmHg 38%
    17:00 +19°C° 0 mm 2 mps 661 mmHg 40%
    18:00 +17°C° 0 mm 2 mps 660 mmHg 46%
    19:00 +15°C° 0 mm 2 mps 660 mmHg 53%
    20:00 +12°C° 0 mm 2 mps 660 mmHg 59%
    21:00 +12°C° 0 mm 2 mps 660 mmHg 61%
    22:00 +10°C° 0 mm 2 mps 660 mmHg 63%
    23:00 +9°C° 0 mm 2 mps 659 mmHg 66%

    Mañana, 20 Septiembre, Jueves

    Tiempo Temperatura Precipitaciones Viento Presión Humedad
    00:00 +9°C° 0 mm 2 mps 659 mmHg 67%
    01:00 +9°C° 0 mm 2 mps 659 mmHg 69%
    02:00 +8°C° 0 mm 2 mps 659 mmHg 70%
    03:00 +8°C° 0 mm 2 mps 659 mmHg 70%
    04:00 +8°C° 0 mm 2 mps 659 mmHg 70%
    05:00 +8°C° 0 mm 2 mps 658 mmHg 70%
    06:00 +9°C° 0 mm 2 mps 659 mmHg 64%
    07:00 +12°C° 0 mm 2 mps 659 mmHg 59%
    08:00 +13°C° 0 mm 2 mps 660 mmHg 54%
    09:00 +15°C° 0 mm 2 mps 660 mmHg 46%
    10:00 +18°C° 0 mm 2 mps 661 mmHg 39%
    11:00 +20°C° 0 mm 2 mps 662 mmHg 32%
    12:00 +21°C° 0 mm 2 mps 662 mmHg 29%
    13:00 +21°C° 0 mm 2 mps 661 mmHg 27%
    14:00 +23°C° 0 mm 2 mps 661 mmHg 25%
    15:00 +21°C° 0 mm 2 mps 661 mmHg 28%
    16:00 +21°C° 0 mm 2 mps 660 mmHg 31%
    17:00 +20°C° 0 mm 2 mps 660 mmHg 34%
    18:00 +18°C° 0 mm 2 mps 660 mmHg 39%
    19:00 +15°C° 0 mm 2 mps 659 mmHg 45%
    20:00 +13°C° 0 mm 2 mps 659 mmHg 51%
    21:00 +12°C° 0 mm 2 mps 659 mmHg 53%
    22:00 +12°C° 0 mm 2 mps 659 mmHg 56%
    23:00 +10°C° 0 mm 2 mps 659 mmHg 59%

    Pasado mañana, 21 Septiembre, Viernes

    Tiempo Temperatura Precipitaciones Viento Presión Humedad
    00:00 +10°C° 0 mm 2 mps 659 mmHg 61%
    01:00 +10°C° 0 mm 2 mps 658 mmHg 63%
    02:00 +10°C° 0 mm 2 mps 658 mmHg 65%
    03:00 +9°C° 0 mm 2 mps 658 mmHg 66%
    04:00 +9°C° 0 mm 2 mps 658 mmHg 67%
    05:00 +9°C° 0 mm 2 mps 658 mmHg 68%
    06:00 +12°C° 0 mm 2 mps 659 mmHg 63%
    07:00 +13°C° 0 mm 2 mps 659 mmHg 59%
    08:00 +15°C° 0 mm 1 mps 660 mmHg 54%
    09:00 +17°C° 0 mm 2 mps 660 mmHg 47%
    10:00 +19°C° 0 mm 2 mps 661 mmHg 41%
    11:00 +21°C° 0 mm 2 mps 661 mmHg 34%
    12:00 +21°C° 0 mm 2 mps 661 mmHg 33%
    13:00 +23°C° 0 mm 2 mps 661 mmHg 31%
    14:00 +23°C° 0 mm 2 mps 661 mmHg 30%
    15:00 +23°C° 0 mm 2 mps 661 mmHg 32%
    16:00 +21°C° 0 mm 2 mps 660 mmHg 35%
    17:00 +20°C° 0 mm 2 mps 660 mmHg 38%
    18:00 +18°C° 0 mm 2 mps 659 mmHg 42%
    19:00 +16°C° 0 mm 2 mps 659 mmHg 47%
    20:00 +14°C° 0 mm 2 mps 659 mmHg 51%
    21:00 +14°C° 0 mm 2 mps 659 mmHg 54%
    22:00 +13°C° 0 mm 2 mps 659 mmHg 56%
    23:00 +13°C° 0 mm 2 mps 659 mmHg 59%

    22 Septiembre, Sábado

    Tiempo Temperatura Precipitaciones Viento Presión Humedad
    00:00 +12°C° 0 mm 2 mps 658 mmHg 60%
    01:00 +12°C° 0 mm 2 mps 658 mmHg 62%
    02:00 +12°C° 0 mm 2 mps 658 mmHg 63%
    03:00 +12°C° 0 mm 2 mps 658 mmHg 64%
    04:00 +10°C° 0 mm 2 mps 658 mmHg 64%
    05:00 +10°C° 0 mm 2 mps 658 mmHg 64%
    06:00 +13°C° 0 mm 1 mps 658 mmHg 60%
    07:00 +14°C° 0 mm 1 mps 659 mmHg 56%
    08:00 +16°C° 0 mm 1 mps 659 mmHg 52%
    09:00 +19°C° 0 mm 1 mps 660 mmHg 46%
    10:00 +21°C° 0 mm 1 mps 661 mmHg 39%
    11:00 +23°C° 0 mm 2 mps 661 mmHg 32%
    12:00 +24°C° 0 mm 2 mps 661 mmHg 30%
    13:00 +24°C° 0 mm 2 mps 661 mmHg 29%
    14:00 +25°C° 0 mm 2 mps 660 mmHg 28%
    15:00 +24°C° 0 mm 2 mps 660 mmHg 30%
    16:00 +23°C° 0 mm 2 mps 660 mmHg 33%
    17:00 +23°C° 0 mm 2 mps 659 mmHg 35%
    18:00 +20°C° 0 mm 2 mps 659 mmHg 41%
    19:00 +18°C° 0 mm 1 mps 658 mmHg 46%
    20:00 +15°C° 0 mm 1 mps 658 mmHg 51%
    21:00 +15°C° 0 mm 1 mps 658 mmHg 52%
    22:00 +14°C° 0 mm 1 mps 658 mmHg 53%
    23:00 +14°C° 0 mm 2 mps 658 mmHg 54%

    23 Septiembre, Domingo

    Tiempo Temperatura Precipitaciones Viento Presión Humedad
    00:00 +14°C° 0 mm 2 mps 658 mmHg 54%
    01:00 +13°C° 0 mm 2 mps 658 mmHg 55%
    02:00 +13°C° 0 mm 2 mps 658 mmHg 55%
    03:00 +13°C° 0 mm 2 mps 658 mmHg 54%
    04:00 +13°C° 0 mm 2 mps 658 mmHg 54%
    05:00 +13°C° 0 mm 2 mps 658 mmHg 53%
    06:00 +14°C° 0 mm 2 mps 658 mmHg 50%
    07:00 +16°C° 0 mm 1 mps 659 mmHg 47%
    08:00 +18°C° 0 mm 1 mps 660 mmHg 44%
    09:00 +20°C° 0 mm 1 mps 660 mmHg 40%
    10:00 +21°C° 0 mm 2 mps 661 mmHg 35%
    11:00 +24°C° 0 mm 2 mps 662 mmHg 31%
    12:00 +25°C° 0 mm 2 mps 661 mmHg 31%
    13:00 +25°C° 0 mm 2 mps 661 mmHg 31%
    14:00 +25°C° 0 mm 2 mps 661 mmHg 30%
    15:00 +24°C° 0 mm 2 mps 660 mmHg 34%
    16:00 +23°C° 0 mm 2 mps 660 mmHg 38%
    17:00 +21°C° 0 mm 2 mps 660 mmHg 42%
    18:00 +21°C° 0 mm 1 mps 660 mmHg 46%
    19:00 +19°C° 0 mm 1 mps 659 mmHg 50%
    20:00 +18°C° 0 mm 1 mps 659 mmHg 54%
    21:00 +16°C° 0 mm 1 mps 659 mmHg 57%
    22:00 +15°C° 0 mm 2 mps 659 mmHg 60%
    23:00 +14°C° 0 mm 2 mps 659 mmHg 63%

    24 Septiembre, Lunes

    Tiempo Temperatura Precipitaciones Viento Presión Humedad
    00:00 +13°C° 0 mm 2 mps 659 mmHg 67%
    01:00 +12°C° 0 mm 1 mps 658 mmHg 70%
    02:00 +12°C° 0 mm 1 mps 658 mmHg 73%
    03:00 +11°C° 0 mm 1 mps 658 mmHg 75%
    04:00 +11°C° 0 mm 1 mps 657 mmHg 77%
    05:00 +11°C° 0 mm 1 mps 657 mmHg 79%
    06:00 +12°C° 0 mm 1 mps 657 mmHg 74%
    07:00 +13°C° 0 mm 1 mps 658 mmHg 69%
    08:00 +15°C° 0 mm 1 mps 658 mmHg 64%
    09:00 +18°C° 0 mm 1 mps 658 mmHg 58%
    10:00 +19°C° 0 mm 2 mps 659 mmHg 52%
    11:00 +20°C° 0 mm 2 mps 659 mmHg 46%
    12:00 +21°C° 0 mm 2 mps 659 mmHg 44%
    13:00 +23°C° 0 mm 2 mps 658 mmHg 42%
    14:00 +24°C° 0 mm 3 mps 658 mmHg 41%
    15:00 +22°C° 0 mm 3 mps 657 mmHg 43%
    16:00 +22°C° 0 mm 3 mps 656 mmHg 46%
    17:00 +21°C° 0 mm 3 mps 656 mmHg 48%
    18:00 +19°C° 0 mm 2 mps 655 mmHg 57%
    19:00 +17°C° 0 mm 2 mps 654 mmHg 65%
    20:00 +14°C° 0 mm 1 mps 654 mmHg 74%
    21:00 +14°C° 0 mm 1 mps 654 mmHg 75%
    22:00 +14°C° 0 mm 1 mps 653 mmHg 76%
    23:00 +13°C° 0 mm 1 mps 653 mmHg 77%
    Mostrar más